Trieste, Italy

1:37 PM CEST on June 27, 2017 (GMT +0200)
Trieste

Weather History for LIVT - September, 2013

Change the Weather History Date:

Friday, September 6, 2013

  Actual Average Record
Temperature  
Mean Temperature 72 °F -  
Max Temperature 78 °F 72 °F 87 °F (2006)
Min Temperature 67 °F 61 °F 55 °F (1996)
Cooling Degree Days 8    
Growing Degree Days 22 (Base 50)    
Moisture  
Dew Point 58 °F    
Average Humidity 58    
Maximum Humidity 68    
Minimum Humidity 42    
Precipitation  
Precipitation 0.00 in 0.13 in - ()
Sea Level Pressure  
Sea Level Pressure 29.94 in    
Wind  
Wind Speed 5 mph ()    
Max Wind Speed 13 mph    
Max Gust Speed -    
Visibility 12.0 miles    
Events      
Averages and records for this station are not official NWS values.
T = Trace of Precipitation, MM = Missing Value Source: Averaged Metar Reports

Daily Weather History Graph

Daily Weather History Graph

Search for Another Location

Airport or City:

Trip Planner

Search our weather history database for the weather conditions in past years. The results will help you decide how hot, cold, wet, or windy it might be!

Date:

Astronomy

Sep. 06, 2013 Rise Set
Actual Time 6:32 AM CEST 7:33 PM CEST
Civil Twilight 6:01 AM CEST 8:03 PM CEST
Nautical Twilight 5:25 AM CEST 8:39 PM CEST
Astronomical Twilight 4:47 AM CEST 9:18 PM CEST
Moon 7:32 AM CEST (9/6) 7:41 PM CEST (9/6)
Length of Visible Light 14h 01m
Length of Day
13h 01m
New Moon, 1% of the Moon is Illuminated
Sep 6
New Moon
Sep 12
First Quarter
Sep 19
Full
Sep 27
Last Quarter
Oct 5
New

Hourly Weather History & Observations

Time (CEST) Temp. Dew Point Humidity Pressure Visibility Wind Dir Wind Speed Gust Speed Precip Events Conditions
12:55 AM 71.6 °F 53.6 °F 53% 29.95 in - WSW 8.1 mph - N/A   Clear
1:55 AM 71.6 °F 53.6 °F 53% 29.95 in - East 8.1 mph - N/A   Clear
2:00 AM 72 °F 54 °F 42% 29.97 in 12 mi East 8.1 mph - -   Partly Cloudy
2:55 AM 73.4 °F 55.4 °F 53% 29.92 in - NE 1.2 mph - N/A   Clear
3:55 AM 69.8 °F 55.4 °F 60% 29.92 in - NE 1.2 mph - N/A   Clear
4:55 AM 68.0 °F 57.2 °F 68% 29.92 in - ENE 1.2 mph - N/A   Clear
5:55 AM 69.8 °F 53.6 °F 56% 29.92 in - Calm Calm - N/A   Clear
6:55 AM 69.8 °F 53.6 °F 56% 29.92 in - East 5.8 mph - N/A   Clear
7:55 AM 71.6 °F 53.6 °F 53% 29.92 in - East 12.7 mph - N/A   Clear
8:00 AM 71 °F 53 °F 43% 29.93 in 12 mi East 12.7 mph - -  
8:55 AM 75.2 °F 53.6 °F 47% 29.92 in - East 3.5 mph - N/A   Clear
9:55 AM 77.0 °F 55.4 °F 47% 29.92 in - ENE 5.8 mph - N/A   Clear
10:55 AM 77.0 °F 62.6 °F 61% 29.95 in - WSW 4.6 mph - N/A   Clear
11:55 AM 78.8 °F 62.6 °F 57% 29.95 in - NW 4.6 mph - N/A   Clear
12:55 PM 77.0 °F 64.4 °F 65% 29.95 in - NW 3.5 mph - N/A   Clear
1:55 PM 77.0 °F 64.4 °F 65% 29.95 in - NW 3.5 mph - N/A   Clear
2:00 PM 77 °F 64 °F 56% 29.95 in 12 mi NW 3.5 mph - -  
2:55 PM 78.8 °F 66.2 °F 65% 29.95 in - NNW 5.8 mph - N/A   Clear
3:55 PM 78.8 °F 66.2 °F 65% 29.92 in - NNW 4.6 mph - N/A   Clear
4:55 PM 78.8 °F 64.4 °F 61% 29.92 in - WNW 5.8 mph - N/A   Clear
5:55 PM 77.0 °F 62.6 °F 61% 29.92 in - WNW 1.2 mph - N/A   Clear
6:55 PM 77.0 °F 62.6 °F 61% 29.92 in - Calm Calm - N/A   Clear
8:55 PM 71.6 °F 55.4 °F 57% 29.95 in - ENE 4.6 mph - N/A   Clear
9:55 PM 69.8 °F 55.4 °F 60% 29.95 in - ENE 4.6 mph - N/A   Clear
10:55 PM 69.8 °F 59.0 °F 68% 29.95 in - ENE 3.5 mph - N/A   Clear
11:55 PM 69.8 °F 59.0 °F 68% 29.95 in - NE 1.2 mph - N/A   Clear